Regional Weather Roundup
Issued by NWS

Home | Current Version | Previous Version | Graphics & Text | Print | Product List | Glossary On
Versions: 1 2 3 4 5 6 7 8 9 10 11 12 13 14 15 16 17 18 19 20 21 22 23 24 25 26 27 28 29 30 31 32 33 34 35 36 37 38 39 40 41 42 43 44 45 46 47 48 49 50
000
ASUS45 KABQ 262010
RWRNM
WEATHER ROUNDUP FOR NEW MEXICO
NATIONAL WEATHER SERVICE ALBUQUERQUE NM
100 PM MST THU FEB 26 2015

NOTE: "FAIR" MEANS FEW OR NO CLOUDS BELOW 12,000 FEET AGL WITH NO
       SIGNIFICANT WEATHER OR OBSTRUCTIONS TO VISION.

      THIS PRODUCT IS RELEASED AS TWO VERSIONS.  ONE VERSION NEAR
      THE TOP OF THE HOUR CONTAINING PRELIMINARY DATA FROM ALBUQUERQUE
      AND OTHER STATIONS.  A FINAL VERSION WITH ADDITIONAL DATA IS
      ISSUED ABOUT 10 MINUTES AFTER THE HOUR.

NMZ501-503-504-510>518-262100-
NORTHWEST PLATEAU/NORTHCENTRAL MOUNTAINS

CITY           SKY/WX    TMP DP  RH WIND       PRES   REMARKS
FARMINGTON     SUNNY     42  21  43 SE6       29.94F
LOS ALAMOS     CLOUDY    24  21  87 S15G22    30.01F WCI  12
SANTA FE       CLOUDY    28  17  63 SE20      30.04F WCI  15
TAOS           CLOUDY    28  19  69 SW20      29.97F WCI  15
ANGEL FIRE     LGT SNOW  22  17  80 S14       29.95F WCI   9

$$
NMZ402-403-502-505>509-262100-
WESTCENTRAL MOUNTAINS/SOUTHWEST MOUNTAINS

CITY           SKY/WX    TMP DP  RH WIND       PRES   REMARKS
GALLUP         CLOUDY    42  24  49 W6        29.95F
GRANTS         PTSUNNY   47  17  29 SE15G21   29.96F
SILVER CITY    MOSUNNY   54  16  22 S8G18     29.98F

$$
NMZ407-409-411-412-262100-
SOUTHERN DESERTS

CITY           SKY/WX    TMP DP  RH WIND       PRES   REMARKS
LORDSBURG      FAIR      61  23  23 S8G35     29.94F
DEMING         SUNNY     59  21  23 SW7G21    29.96F
LAS CRUCES     SUNNY     57  27  31 SE13      30.00F
HOLLOMAN AFB   MOSUNNY   54  27  35 S15       29.99F
ALAMOGORDO     MOSUNNY   54  27  35 S16G22    30.00F
T OR C         MOSUNNY   52  27  38 SE5       29.96F

$$
NMZ519>523-262100-
CENTRAL VALLEYS/CENTRAL HIGHLANDS

CITY           SKY/WX    TMP DP  RH WIND       PRES   REMARKS
ALBUQUERQUE    CLOUDY    41  23  48 E22       30.01F
DOUBLE EAGLE   PTSUNNY   39  21  48 E10       30.02F WCI  32
MORIARTY ARPT  CLOUDY    28  20  73 SE13      30.08F WCI  17
CLINES CORNERS CLOUDY    21  18  88 SE14      30.03F WCI   8
BELEN          FAIR      47  23  39 SE9G23    30.00F
SOCORRO          N/A     50  24  36 SE7       29.99F

$$
NMZ524>526-539-540-262100-
SOUTHCENTRAL MOUNTAINS

CITY           SKY/WX    TMP DP  RH WIND       PRES   REMARKS
RUIDOSO        CLOUDY    25  23  93 SE12G21   30.09F FOG     WCI  14

$$
NMZ527>531-262100-
NORTHEAST HIGHLANDS/NORTHEAST PLAINS

CITY           SKY/WX    TMP DP  RH WIND       PRES   REMARKS
LAS VEGAS      LGT SNOW  20  16  84 S17       30.06F FOG     WCI   5
RATON          LGT SNOW  19  15  84 S14       30.06F FOG     WCI   6
CLAYTON        LGT SNOW  19  13  77 NE9       30.19F WCI   8

$$
NMZ532>537-262100-
EASTCENTRAL PLAINS

CITY           SKY/WX    TMP DP  RH WIND       PRES   REMARKS
TUCUMCARI      FLURRIES  24  19  81 E14       30.23F WCI  12
CANNON AFB     CLOUDY    23  18  83 NE16      30.21F WCI   9
CLOVIS AIRPORT CLOUDY    23  18  80 NE12      30.23F WCI  12

$$
NMZ028-029-538-262100-
SOUTHEAST PLAINS

CITY           SKY/WX    TMP DP  RH WIND       PRES   REMARKS
ROSWELL        CLOUDY    33  22  63 E13       30.22S WCI  24
ARTESIA        CLOUDY    32  32 100 NE9       30.24R FOG     WCI  24
CARLSBAD       CLOUDY    35  29  78 E12       30.22S WCI  27
HOBBS          CLOUDY    27  19  74 NE15      30.23S WCI  15


$$



USA.gov is the U.S. government's official web portal to all federal, state and local government web resources and services.